Weather in Le puy-en-Velay

France     45°02′31″N   3°52′54″E
temp.,
°C
wind,
m/s
gust,
m/s
humid.,
%
clouds,
%
prec.,
mm/h
press.,
hPa
HPBL,
m
17 may, tue
tue1723:00+13s2178100 0.0 102215
02:00+12s118339 0.0 102111
05:00+11s118654 0.0 102113
08:00+15ssw117034 0.0 102165
11:00+23n113959 0.0 10191220
14:00+26nw22265 0.0 10182320
17:00+26nnw242625 0.0 10162598
20:00+21ene125827 0.0 101834
18 may, wed
wed1823:00+15s22771 0.0 102021
02:00+13sw11864 0.0 102111
05:00+11sw11935 0.0 102210
08:00+14wnw01847 0.0 1023121
11:00+22n23535 0.0 1021927
14:00+26nne2238100 0.0 10192351
17:00+25ese334186 0.0 10181740
20:00+20sse236595 0.1 1019109
19 may, thu
thu1923:00+15sse238585 0.4 102155
02:00+13sse238278 0.4 102259
05:00+13sse2576100 0.0 102291
08:00+15sse248097 0.1 1023147
11:00+22sse354494 0.1 10221013
14:00+25s45405 0.1 10221357
17:00+25s454126 0.0 10211327
20:00+20s37605 0.0 1021541
20 may, fri
fri2023:00+13sse238419 0.0 102466
02:00+13sse357287 0.0 1024116
05:00+13sse36647 0.0 1023152
08:00+16sse412608 0.0 1023368
11:00+22s5104099 0.0 1022709
14:00+24s6840100 0.0 10231044
17:00+24s5740100 0.0 10231038
20:00+19sse366099 0.0 1023307
21 may, sat
sat2123:00+14s3475100 0.0 102668
02:00+13s2273100 0.0 102527
05:00+13sse117463 0.0 102411
08:00+16e016517 0.0 102377
11:00+25nne114146 0.0 1021830
14:00+29nnw232926 0.0 10191804
17:00+29nne232795 0.0 10172099
20:00+23se2262100 0.0 101856